User: anonymous   Login
Location: Unspecified
(0.0000°N, 0.0000°E)
Time: 19:59:23
(UTC+00:00)
Language:

SMS 1 - Orbit

View from above orbital plane
View from above orbital plane
View from above satellite
View from above satellite

Ground track
Ground track

The orbit data is extracted from the following two-line orbital elements,

1  7298U 74033A   17268.53830750 -.00000217 +00000-0 +00000-0 0  9999
2  7298 011.8481 304.9569 0019697 331.9382 052.8476 00.98613769088465
Epoch (UTC): 25 September 2017 12:55:09
Eccentricity: 0.0019697
inclination: 11.8481°
perigee height: 36173 km
apogee height: 36341 km
right ascension of ascending node: 304.9569°
argument of perigee: 331.9382°
revolutions per day: 0.98613769
mean anomaly at epoch: 52.8476°
orbit number at epoch: 8846

The dashed part of the orbit path shows where the satellite is in the earth's shadow,  

DLR